• In Germany
  • List of Countries
  • For 7 days
  • Water Temperature
  • Satellite Maps
  • Weather Map
  • Weather Widgets
  • user-avatar
    Login

    Hourly Weather Ordino

    Today, 27 June, Tuesday

    Time Temperature Precipitation Wind Pressure Humidity
    00:00 +9°C° 0 mm 0 mps 631 mmHg 86%
    01:00 +9°C° 0 mm 0 mps 630 mmHg 86%
    02:00 +10°C° 0 mm 1 mps 630 mmHg 86%
    03:00 +9°C° 0 mm 1 mps 630 mmHg 86%
    04:00 +11°C° 0 mm 1 mps 630 mmHg 82%
    05:00 +13°C° 0 mm 1 mps 631 mmHg 78%
    06:00 +15°C° 0 mm 1 mps 632 mmHg 74%
    07:00 +18°C° 0 mm 1 mps 632 mmHg 65%
    08:00 +19°C° 0 mm 2 mps 633 mmHg 56%
    09:00 +21°C° 0 mm 3 mps 633 mmHg 46%
    10:00 +22°C° 0.1 mm 3 mps 633 mmHg 44%
    11:00 +23°C° 0.1 mm 4 mps 633 mmHg 41%
    12:00 +25°C° 0.1 mm 4 mps 633 mmHg 38%
    13:00 +23°C° 0.6 mm 4 mps 632 mmHg 44%
    14:00 +22°C° 0.6 mm 4 mps 632 mmHg 51%
    15:00 +21°C° 0.6 mm 3 mps 631 mmHg 58%
    16:00 +20°C° 1.3 mm 3 mps 630 mmHg 63%
    17:00 +19°C° 1.3 mm 2 mps 630 mmHg 67%
    18:00 +18°C° 1.3 mm 2 mps 629 mmHg 72%
    19:00 +16°C° 0.4 mm 1 mps 629 mmHg 77%
    20:00 +13°C° 0.4 mm 1 mps 628 mmHg 81%
    21:00 +11°C° 0.4 mm 1 mps 628 mmHg 86%
    22:00 +11°C° 0 mm 1 mps 628 mmHg 87%
    23:00 +10°C° 0 mm 1 mps 628 mmHg 88%

    Tomorrow, 28 June, Wednesday

    Time Temperature Precipitation Wind Pressure Humidity
    00:00 +9°C° 0 mm 1 mps 627 mmHg 89%
    01:00 +9°C° 0 mm 1 mps 627 mmHg 90%
    02:00 +9°C° 0 mm 1 mps 627 mmHg 90%
    03:00 +9°C° 0 mm 1 mps 627 mmHg 91%
    04:00 +10°C° 0.1 mm 1 mps 627 mmHg 89%
    05:00 +11°C° 0.1 mm 1 mps 628 mmHg 87%
    06:00 +12°C° 0.1 mm 1 mps 628 mmHg 85%
    07:00 +12°C° 0.3 mm 1 mps 628 mmHg 80%
    08:00 +13°C° 0.3 mm 2 mps 629 mmHg 76%
    09:00 +13°C° 0.3 mm 3 mps 629 mmHg 71%
    10:00 +14°C° 0.4 mm 3 mps 629 mmHg 67%
    11:00 +14°C° 0.4 mm 3 mps 629 mmHg 64%
    12:00 +16°C° 0.4 mm 3 mps 629 mmHg 60%
    13:00 +16°C° 0.9 mm 3 mps 629 mmHg 61%
    14:00 +15°C° 0.9 mm 4 mps 629 mmHg 62%
    15:00 +15°C° 0.9 mm 4 mps 628 mmHg 62%
    16:00 +14°C° 1.1 mm 4 mps 628 mmHg 64%
    17:00 +14°C° 1.1 mm 3 mps 628 mmHg 66%
    18:00 +13°C° 1.1 mm 3 mps 628 mmHg 68%
    19:00 +12°C° 0.3 mm 2 mps 627 mmHg 73%
    20:00 +10°C° 0.3 mm 2 mps 627 mmHg 79%
    21:00 +8°C° 0.3 mm 2 mps 627 mmHg 85%
    22:00 +8°C° 0.1 mm 2 mps 627 mmHg 86%
    23:00 +7°C° 0.1 mm 2 mps 627 mmHg 87%

    Day after tomorrow, 29 June, Thursday

    Time Temperature Precipitation Wind Pressure Humidity
    00:00 +6°C° 0.1 mm 2 mps 627 mmHg 88%
    01:00 +6°C° 0 mm 2 mps 627 mmHg 89%
    02:00 +5°C° 0 mm 2 mps 627 mmHg 90%
    03:00 +6°C° 0 mm 1 mps 627 mmHg 90%
    04:00 +7°C° 0 mm 1 mps 627 mmHg 88%
    05:00 +7°C° 0 mm 1 mps 628 mmHg 85%
    06:00 +8°C° 0 mm 1 mps 628 mmHg 82%
    07:00 +9°C° 0 mm 2 mps 629 mmHg 74%
    08:00 +10°C° 0 mm 2 mps 630 mmHg 66%
    09:00 +13°C° 0 mm 2 mps 630 mmHg 58%
    10:00 +12°C° 0.1 mm 3 mps 631 mmHg 57%
    11:00 +12°C° 0.1 mm 3 mps 631 mmHg 55%
    12:00 +13°C° 0.1 mm 3 mps 631 mmHg 54%
    13:00 +13°C° 0.4 mm 4 mps 631 mmHg 52%
    14:00 +13°C° 0.4 mm 4 mps 631 mmHg 50%
    15:00 +14°C° 0.4 mm 4 mps 631 mmHg 48%
    16:00 +13°C° 0.5 mm 4 mps 630 mmHg 52%
    17:00 +12°C° 0.5 mm 3 mps 630 mmHg 55%
    18:00 +12°C° 0.5 mm 2 mps 630 mmHg 59%
    19:00 +9°C° 0.3 mm 2 mps 630 mmHg 67%
    20:00 +7°C° 0.3 mm 1 mps 629 mmHg 75%
    21:00 +5°C° 0.3 mm 1 mps 629 mmHg 83%
    22:00 +4°C° 0 mm 1 mps 628 mmHg 84%
    23:00 +4°C° 0 mm 1 mps 628 mmHg 84%

    30 June, Friday

    Time Temperature Precipitation Wind Pressure Humidity
    00:00 +3°C° 0 mm 1 mps 628 mmHg 85%
    01:00 +3°C° 0 mm 1 mps 628 mmHg 85%
    02:00 +3°C° 0 mm 1 mps 628 mmHg 85%
    03:00 +2°C° 0 mm 1 mps 628 mmHg 85%
    04:00 +4°C° 0 mm 1 mps 628 mmHg 79%
    05:00 +6°C° 0 mm 1 mps 629 mmHg 74%
    06:00 +7°C° 0 mm 1 mps 630 mmHg 68%
    07:00 +8°C° 0 mm 2 mps 631 mmHg 59%
    08:00 +10°C° 0 mm 2 mps 632 mmHg 51%
    09:00 +12°C° 0 mm 3 mps 632 mmHg 42%
    10:00 +13°C° 0 mm 3 mps 633 mmHg 40%
    11:00 +14°C° 0 mm 4 mps 633 mmHg 38%
    12:00 +15°C° 0 mm 4 mps 633 mmHg 36%
    13:00 +15°C° 0.4 mm 4 mps 633 mmHg 39%
    14:00 +16°C° 0.4 mm 3 mps 633 mmHg 41%
    15:00 +16°C° 0.4 mm 3 mps 633 mmHg 43%
    16:00 +14°C° 0.6 mm 3 mps 632 mmHg 49%
    17:00 +14°C° 0.6 mm 2 mps 632 mmHg 54%
    18:00 +13°C° 0.6 mm 2 mps 632 mmHg 59%
    19:00 +10°C° 0.2 mm 2 mps 632 mmHg 67%
    20:00 +8°C° 0.2 mm 2 mps 632 mmHg 75%
    21:00 +7°C° 0.2 mm 1 mps 631 mmHg 83%
    22:00 +6°C° 0 mm 1 mps 631 mmHg 85%
    23:00 +6°C° 0 mm 1 mps 631 mmHg 87%

    1 July, Saturday

    Time Temperature Precipitation Wind Pressure Humidity
    00:00 +6°C° 0 mm 1 mps 631 mmHg 90%
    01:00 +5°C° 0 mm 1 mps 631 mmHg 90%
    02:00 +5°C° 0 mm 1 mps 631 mmHg 90%
    03:00 +5°C° 0 mm 1 mps 631 mmHg 91%
    04:00 +6°C° 0 mm 1 mps 632 mmHg 87%
    05:00 +7°C° 0 mm 1 mps 632 mmHg 84%
    06:00 +8°C° 0 mm 1 mps 633 mmHg 80%
    07:00 +10°C° 0 mm 1 mps 634 mmHg 72%
    08:00 +12°C° 0 mm 1 mps 635 mmHg 64%
    09:00 +14°C° 0 mm 2 mps 636 mmHg 55%
    10:00 +14°C° 0.4 mm 2 mps 636 mmHg 58%
    11:00 +14°C° 0.4 mm 2 mps 636 mmHg 60%
    12:00 +14°C° 0.4 mm 2 mps 636 mmHg 63%
    13:00 +13°C° 0.6 mm 3 mps 636 mmHg 64%
    14:00 +14°C° 0.6 mm 3 mps 636 mmHg 66%
    15:00 +14°C° 0.6 mm 3 mps 636 mmHg 67%
    16:00 +13°C° 0.4 mm 3 mps 636 mmHg 71%
    17:00 +12°C° 0.4 mm 3 mps 636 mmHg 76%
    18:00 +11°C° 0.4 mm 3 mps 636 mmHg 80%
    19:00 +10°C° 0.3 mm 3 mps 637 mmHg 83%
    20:00 +9°C° 0.3 mm 3 mps 637 mmHg 87%
    21:00 +8°C° 0.3 mm 2 mps 637 mmHg 91%
    22:00 +8°C° 0.2 mm 2 mps 637 mmHg 91%
    23:00 +8°C° 0.2 mm 3 mps 637 mmHg 92%

    2 July, Sunday

    Time Temperature Precipitation Wind Pressure Humidity
    00:00 +7°C° 0.2 mm 3 mps 637 mmHg 92%
    01:00 +7°C° 0.1 mm 2 mps 637 mmHg 92%
    02:00 +7°C° 0.1 mm 2 mps 637 mmHg 92%
    03:00 +7°C° 0.1 mm 2 mps 637 mmHg 92%
    04:00 +8°C° 0 mm 2 mps 637 mmHg 90%
    05:00 +8°C° 0 mm 2 mps 638 mmHg 88%
    06:00 +9°C° 0 mm 2 mps 638 mmHg 86%
    07:00 +10°C° 0 mm 2 mps 639 mmHg 78%
    08:00 +13°C° 0 mm 2 mps 639 mmHg 70%
    09:00 +13°C° 0 mm 3 mps 640 mmHg 62%
    10:00 +16°C° 0 mm 3 mps 640 mmHg 56%
    11:00 +18°C° 0 mm 3 mps 641 mmHg 50%
    12:00 +19°C° 0 mm 3 mps 641 mmHg 44%
    13:00 +19°C° 0 mm 3 mps 641 mmHg 44%
    14:00 +20°C° 0 mm 3 mps 641 mmHg 43%
    15:00 +20°C° 0 mm 3 mps 641 mmHg 43%
    16:00 +19°C° 0 mm 3 mps 640 mmHg 48%
    17:00 +18°C° 0 mm 3 mps 640 mmHg 53%
    18:00 +17°C° 0 mm 3 mps 639 mmHg 58%
    19:00 +13°C° 0 mm 3 mps 639 mmHg 67%
    20:00 +12°C° 0 mm 2 mps 638 mmHg 76%
    21:00 +9°C° 0 mm 2 mps 638 mmHg 84%
    22:00 +8°C° 0 mm 2 mps 638 mmHg 84%
    23:00 +8°C° 0 mm 2 mps 638 mmHg 83%
    Show more